M I D A S
Marine Information and Data Acquisition System
Tripno 2290 of the Zeeleeuw from 2012-04-16 07:19:15 to 2012-04-16 17:02:20
Back to CruiseResearch ActivitiesStationsMapUnderway DataData graphs

EquipmentUnitsComments
TimeDGPSUTC
LatitudeDGPSDM.mWGS84
LongitudeDGPSDM.mWGS84
SpeedMeteo Stationm/sRelative wind speed
DirectionMeteo StationdegRelative wind direction
TemperatureMeteo Stationdeg CelciusAir temperature
PressureMeteo StationPaAtmospheric pressure
HumidityMeteo Station%Relative humidity
Missing or incorrect values are displayed as -999
Metereological data collected by the RV Zeeleeuw from 2012-04-16 05:55:52 to 2012-04-16 17:18:31
                                                                                    Next 1000 lines
Time Latitude Longitude Speed Direction Temperature Pressure Humidity
2012-04-16 05:56:02 51°13.638 2°56.019 5.2 21 5.8 102330 40
2012-04-16 05:56:06 51°13.638 2°56.019 5.8 51 5.8 102330 40
2012-04-16 05:56:13 51°13.638 2°56.018 6.1 30 5.8 102340 41
2012-04-16 05:56:17 51°13.638 2°56.018 3.8 286 5.8 102340 41
2012-04-16 05:56:23 51°13.638 2°56.018 3.7 23 5.8 102340 42
2012-04-16 05:56:27 51°13.638 2°56.018 4.2 313 5.8 102340 42
2012-04-16 05:56:32 51°13.638 2°56.017 3.5 264 5.8 102340 42
2012-04-16 05:56:37 51°13.638 2°56.017 3.4 54 5.8 102340 42
2012-04-16 05:56:42 51°13.638 2°56.017 3.2 270 5.8 102340 42
2012-04-16 05:56:47 51°13.638 2°56.017 3.5 313 5.8 102340 42
2012-04-16 05:56:53 51°13.637 2°56.017 4.3 263 5.8 102330 41
2012-04-16 05:56:58 51°13.637 2°56.017 4 310 5.8 102330 41
2012-04-16 05:57:03 51°13.637 2°56.018 4.8 267 5.8 102330 41
2012-04-16 05:57:07 51°13.637 2°56.017 3.6 310 5.8 102330 41
2012-04-16 05:57:12 51°13.637 2°56.016 4.2 264 5.9 102330 41
2012-04-16 05:57:17 51°13.637 2°56.017 4.2 304 5.9 102330 41
2012-04-16 05:57:22 51°13.637 2°56.017 3.5 264 5.9 102330 42
2012-04-16 05:57:27 51°13.637 2°56.018 2.8 312 5.9 102330 42
2012-04-16 05:57:32 51°13.637 2°56.018 4.8 21 5.9 102340 41
2012-04-16 05:57:37 51°13.637 2°56.018 4 59 5.9 102340 41
2012-04-16 05:57:42 51°13.638 2°56.018 3.2 261 5.9 102330 41
2012-04-16 05:57:47 51°13.638 2°56.018 3.8 304 5.9 102330 41
2012-04-16 05:57:52 51°13.638 2°56.018 3.2 266 5.9 102330 41
2012-04-16 05:57:57 51°13.637 2°56.018 3.4 303 5.9 102330 41
2012-04-16 05:58:03 51°13.637 2°56.018 3.4 265 5.9 102330 40
2012-04-16 05:58:08 51°13.637 2°56.017 3 308 5.9 102330 40
2012-04-16 05:58:12 51°13.637 2°56.018 2.8 266 5.9 102330 41
2012-04-16 05:58:18 51°13.637 2°56.019 3.7 280 5.9 102330 41
2012-04-16 05:58:23 51°13.638 2°56.018 6.4 258 5.9 102330 41
2012-04-16 05:58:28 51°13.638 2°56.018 5.8 305 5.9 102330 41
2012-04-16 05:58:32 51°13.638 2°56.017 3.4 266 5.9 102330 40
2012-04-16 05:58:38 51°13.638 2°56.018 6.4 310 5.9 102330 40
2012-04-16 05:58:43 51°13.638 2°56.018 5.9 258 5.9 102330 39
2012-04-16 05:58:48 51°13.638 2°56.018 4.2 306 5.9 102330 39
2012-04-16 05:58:53 51°13.638 2°56.019 4.3 270 5.9 102340 40
2012-04-16 05:58:58 51°13.638 2°56.018 3.4 305 5.9 102340 40
2012-04-16 05:59:03 51°13.638 2°56.018 4.4 267 5.9 102340 40
2012-04-16 05:59:08 51°13.638 2°56.019 2.5 305 5.9 102340 40
2012-04-16 05:59:12 51°13.638 2°56.019 2.6 265 6 102340 41
2012-04-16 05:59:17 51°13.638 2°56.018 2.7 50 6 102340 41
2012-04-16 05:59:22 51°13.638 2°56.018 2.6 265 6 102340 40
2012-04-16 05:59:27 51°13.638 2°56.019 3.4 313 6 102340 40
2012-04-16 05:59:33 51°13.638 2°56.019 3.2 26 6 102340 40
2012-04-16 05:59:38 51°13.637 2°56.019 2.9 61 6 102340 40
2012-04-16 05:59:43 51°13.637 2°56.019 6.1 261 6 102330 42
2012-04-16 05:59:48 51°13.637 2°56.019 4.4 305 6 102330 42
2012-04-16 05:59:53 51°13.637 2°56.019 4.6 268 6 102340 40
2012-04-16 05:59:58 51°13.637 2°56.019 8.1 308 6 102340 40
2012-04-16 06:00:03 51°13.637 2°56.019 4.4 267 6 102330 41
2012-04-16 06:00:08 51°13.637 2°56.019 5.3 303 6 102330 41
2012-04-16 06:00:13 51°13.637 2°56.019 5 265 6 102340 41
2012-04-16 06:00:18 51°13.637 2°56.019 4 60 6 102340 41
2012-04-16 06:00:22 51°13.637 2°56.019 3.8 21 6 102340 41
2012-04-16 06:00:27 51°13.637 2°56.019 3.8 308 6 102340 41
2012-04-16 06:00:32 51°13.637 2°56.018 5.8 264 6 102330 40
2012-04-16 06:00:37 51°13.637 2°56.019 5 308 6 102330 40
2012-04-16 06:00:42 51°13.637 2°56.019 5.9 265 6 102340 40
2012-04-16 06:00:48 51°13.637 2°56.019 3.6 311 6 102340 40
2012-04-16 06:00:53 51°13.637 2°56.019 4.4 262 6 102340 40
2012-04-16 06:00:58 51°13.637 2°56.019 4 302 6 102340 40
2012-04-16 06:01:02 51°13.637 2°56.019 5.8 265 6 102340 39
2012-04-16 06:01:07 51°13.637 2°56.019 3.8 304 6 102340 39
2012-04-16 06:01:12 51°13.637 2°56.019 7.6 261 6 102330 39
2012-04-16 06:01:18 51°13.637 2°56.019 3.8 306 6 102330 39
2012-04-16 06:01:23 51°13.637 2°56.019 5.2 268 6 102330 38
2012-04-16 06:01:28 51°13.637 2°56.019 4.5 313 6 102330 38
2012-04-16 06:01:33 51°13.637 2°56.019 6.6 23 6 102330 40
2012-04-16 06:01:38 51°13.637 2°56.019 7.4 311 6 102330 40
2012-04-16 06:01:42 51°13.637 2°56.019 8.9 268 6 102340 39
2012-04-16 06:01:47 51°13.637 2°56.02 6.8 16 6 102340 39
2012-04-16 06:01:52 51°13.637 2°56.02 5.7 20 6 102330 40
2012-04-16 06:01:57 51°13.637 2°56.021 5.5 303 6 102330 40
2012-04-16 06:02:02 51°13.637 2°56.019 5 267 6 102340 39
2012-04-16 06:02:07 51°13.637 2°56.02 4.1 307 6 102340 39
2012-04-16 06:02:13 51°13.637 2°56.02 6.6 270 6 102330 40
2012-04-16 06:02:18 51°13.637 2°56.019 7.8 281 6 102330 40
2012-04-16 06:02:21 51°13.637 2°56.019 6.7 21 6 102330 39
2012-04-16 06:02:27 51°13.637 2°56.019 6.2 307 6 102330 39
2012-04-16 06:02:33 51°13.637 2°56.019 6.5 268 6 102340 40
2012-04-16 06:02:38 51°13.636 2°56.019 6.8 61 6 102340 40
2012-04-16 06:02:43 51°13.636 2°56.019 6.7 244 6 102330 40
2012-04-16 06:02:48 51°13.636 2°56.019 5.5 61 6 102330 40
2012-04-16 06:02:53 51°13.636 2°56.019 4.6 27 6 102330 38
2012-04-16 06:02:57 51°13.636 2°56.019 5.9 310 6 102330 38
2012-04-16 06:03:03 51°13.636 2°56.019 5.8 268 6 102330 38
2012-04-16 06:03:07 51°13.636 2°56.02 4.7 309 6 102330 38
2012-04-16 06:03:13 51°13.636 2°56.019 3.5 29 6 102340 38
2012-04-16 06:03:17 51°13.636 2°56.019 3.8 279 6 102340 38
2012-04-16 06:03:22 51°13.636 2°56.019 3.4 30 6 102330 40
2012-04-16 06:03:27 51°13.636 2°56.02 6.4 314 6 102330 40
2012-04-16 06:03:33 51°13.636 2°56.02 6.9 260 6 102330 38
2012-04-16 06:03:38 51°13.636 2°56.02 5 303 6 102330 38
2012-04-16 06:03:42 51°13.636 2°56.02 5.1 24 6 102340 38
2012-04-16 06:03:47 51°13.636 2°56.02 3.6 304 6 102340 38
2012-04-16 06:03:52 51°13.636 2°56.02 4.1 262 6 102340 38
2012-04-16 06:03:57 51°13.636 2°56.02 3.1 49 6 102340 38
2012-04-16 06:04:02 51°13.636 2°56.02 4.2 29 6 102330 37
2012-04-16 06:04:08 51°13.636 2°56.021 6.5 54 6 102330 37
2012-04-16 06:04:13 51°13.636 2°56.021 4.7 17 6 102340 39
2012-04-16 06:04:17 51°13.636 2°56.021 2.6 303 6 102340 39
2012-04-16 06:04:22 51°13.636 2°56.02 5.3 270 6 102330 39
2012-04-16 06:04:27 51°13.636 2°56.021 4.2 55 6 102330 39
2012-04-16 06:04:32 51°13.636 2°56.02 6.6 23 6 102340 38
2012-04-16 06:04:37 51°13.636 2°56.02 5 57 6 102340 38
2012-04-16 06:04:42 51°13.636 2°56.021 4 257 6 102340 38
2012-04-16 06:04:47 51°13.636 2°56.02 5 61 6 102340 38
2012-04-16 06:04:53 51°13.636 2°56.02 4.7 270 6 102330 38
2012-04-16 06:04:58 51°13.636 2°56.02 5.7 310 6 102330 38
2012-04-16 06:05:03 51°13.636 2°56.02 4.7 264 6 102340 38
2012-04-16 06:05:08 51°13.636 2°56.02 5.6 313 6 102340 38
2012-04-16 06:05:13 51°13.636 2°56.02 4.3 268 6.1 102340 38
2012-04-16 06:05:18 51°13.636 2°56.02 3.9 280 6.1 102340 38
2012-04-16 06:05:23 51°13.636 2°56.02 4.2 269 6 102330 39
2012-04-16 06:05:28 51°13.636 2°56.02 4.7 309 6 102330 39
2012-04-16 06:05:33 51°13.637 2°56.02 4.4 264 6 102340 39
2012-04-16 06:05:38 51°13.637 2°56.02 4.3 61 6 102340 39
2012-04-16 06:05:42 51°13.637 2°56.02 4.6 31 6 102330 37
2012-04-16 06:05:48 51°13.637 2°56.019 5.8 52 6 102330 37
2012-04-16 06:05:52 51°13.637 2°56.019 7.2 21 6 102330 37
2012-04-16 06:05:58 51°13.637 2°56.019 5 303 6 102330 37
2012-04-16 06:06:02 51°13.637 2°56.019 5.7 264 6 102330 37
2012-04-16 06:06:07 51°13.637 2°56.019 6.1 308 6 102330 37
2012-04-16 06:06:12 51°13.637 2°56.02 4.1 264 6 102330 38
2012-04-16 06:06:17 51°13.637 2°56.019 7.2 308 6 102330 38
2012-04-16 06:06:23 51°13.637 2°56.019 6.3 261 6 102330 37
2012-04-16 06:06:28 51°13.636 2°56.019 4.6 58 6 102330 37
2012-04-16 06:06:33 51°13.636 2°56.019 4 272 6 102340 38
2012-04-16 06:06:38 51°13.636 2°56.019 3.5 57 6 102340 38
2012-04-16 06:06:43 51°13.636 2°56.019 3.3 269 6 102330 36
2012-04-16 06:06:47 51°13.637 2°56.019 4 304 6 102330 36
2012-04-16 06:06:52 51°13.637 2°56.019 4.7 21 6 102340 39
2012-04-16 06:06:57 51°13.637 2°56.02 4.1 63 6 102340 39
2012-04-16 06:07:03 51°13.637 2°56.019 5.4 269 6.1 102330 38
2012-04-16 06:07:08 51°13.638 2°56.018 3.7 303 6.1 102330 38
2012-04-16 06:07:13 51°13.637 2°56.02 4.9 270 6.1 102330 38
2012-04-16 06:07:18 51°13.637 2°56.02 4.3 282 6.1 102330 38
2012-04-16 06:07:22 51°13.637 2°56.02 3.5 264 6.1 102340 39
2012-04-16 06:07:27 51°13.637 2°56.019 4.8 55 6.1 102340 39
2012-04-16 06:07:32 51°13.637 2°56.019 4.1 27 6.1 102330 38
2012-04-16 06:07:37 51°13.637 2°56.02 4.9 57 6.1 102330 38
2012-04-16 06:07:42 51°13.637 2°56.02 6.1 270 6 102330 37
2012-04-16 06:07:47 51°13.638 2°56.02 5.4 306 6 102330 37
2012-04-16 06:07:50 51°13.638 2°56.019 5 270 6.1 102330 39
2012-04-16 06:07:57 51°13.637 2°56.02 5 270 6.1 102330 39
2012-04-16 06:08:02 51°13.636 2°56.02 5 270 6.1 102330 39
2012-04-16 06:08:07 51°13.636 2°56.019 5 270 6.1 102330 39
2012-04-16 06:08:13 51°13.636 2°56.019 5 270 6.1 102330 39
2012-04-16 06:08:18 51°13.636 2°56.02 5 270 6.1 102330 39
2012-04-16 06:08:23 51°13.636 2°56.02 -999 -999 -999 -999 -999
2012-04-16 06:08:28 51°13.636 2°56.019 -999 -999 -999 -999 -999
2012-04-16 06:08:33 51°13.636 2°56.019 4 265 -999 -999 -999
2012-04-16 06:08:38 51°13.636 2°56.019 4 311 -999 -999 -999
2012-04-16 06:08:43 51°13.637 2°56.019 3.8 270 -999 -999 -999
2012-04-16 06:08:48 51°13.637 2°56.019 4.3 60 -999 -999 -999
2012-04-16 06:08:52 51°13.637 2°56.018 4.1 19 6 -999 25
2012-04-16 06:08:57 51°13.636 2°56.019 4.7 56 6 -999 25
2012-04-16 06:09:02 51°13.636 2°56.019 6.1 23 6.1 -999 40
2012-04-16 06:09:07 51°13.636 2°56.019 4.7 313 6.1 -999 40
2012-04-16 06:09:12 51°13.636 2°56.019 4.4 266 6.1 102330 41
2012-04-16 06:09:17 51°13.636 2°56.019 4.6 306 6.1 102330 41
2012-04-16 06:09:22 51°13.636 2°56.02 3.5 30 6.1 102330 40
2012-04-16 06:09:27 51°13.636 2°56.019 4.8 52 6.1 102330 40
2012-04-16 06:09:33 51°13.637 2°56.019 3.8 264 6.1 102330 40
2012-04-16 06:09:38 51°13.637 2°56.018 3.1 302 6.1 102330 40
2012-04-16 06:09:42 51°13.637 2°56.018 4.3 29 6.1 102330 39
2012-04-16 06:09:47 51°13.637 2°56.019 4.9 312 6.1 102330 39
2012-04-16 06:09:52 51°13.636 2°56.018 7 269 6.1 102330 39
2012-04-16 06:09:57 51°13.636 2°56.018 3.3 305 6.1 102330 39
2012-04-16 06:10:02 51°13.636 2°56.018 4.1 263 6.1 102330 41
2012-04-16 06:10:07 51°13.636 2°56.019 6.1 310 6.1 102330 41
2012-04-16 06:10:13 51°13.636 2°56.018 4 268 6.1 102330 41
2012-04-16 06:10:18 51°13.636 2°56.019 4.8 313 6.1 102330 41
2012-04-16 06:10:22 51°13.636 2°56.018 5.7 22 6.1 102330 40
2012-04-16 06:10:27 51°13.636 2°56.018 4.7 313 6.1 102330 40
2012-04-16 06:10:32 51°13.635 2°56.019 4.8 264 6.1 102330 41
2012-04-16 06:10:37 51°13.635 2°56.019 7.6 309 6.1 102330 41
2012-04-16 06:10:43 51°13.635 2°56.019 5.6 270 6.1 102330 40
2012-04-16 06:10:47 51°13.635 2°56.019 7.1 314 6.1 102330 40
2012-04-16 06:10:51 51°13.635 2°56.019 6 270 6.1 102330 40
2012-04-16 06:10:57 51°13.635 2°56.019 4.5 299 6.1 102330 40
2012-04-16 06:11:02 51°13.636 2°56.018 3.5 265 6.1 102330 40
2012-04-16 06:11:08 51°13.636 2°56.018 2.8 308 6.1 102330 40
2012-04-16 06:11:12 51°13.636 2°56.018 4.1 28 6.1 102330 40
2012-04-16 06:11:17 51°13.636 2°56.018 3 312 6.1 102330 40
2012-04-16 06:11:22 51°13.636 2°56.018 5.4 263 6.1 102340 39
2012-04-16 06:11:28 51°13.636 2°56.019 3.7 52 6.1 102340 39
2012-04-16 06:11:32 51°13.636 2°56.018 5.2 26 6.1 102330 41
2012-04-16 06:11:37 51°13.636 2°56.019 5.7 306 6.1 102330 41
2012-04-16 06:11:42 51°13.636 2°56.019 6 270 6.1 102330 39
2012-04-16 06:11:47 51°13.636 2°56.019 4.3 307 6.1 102330 39
2012-04-16 06:11:52 51°13.636 2°56.019 4.1 356 6.1 102330 41
2012-04-16 06:11:57 51°13.636 2°56.019 3.1 302 6.1 102330 41
2012-04-16 06:12:02 51°13.635 2°56.019 3.7 32 6.1 102330 41
2012-04-16 06:12:07 51°13.635 2°56.019 5.9 51 6.1 102330 41
2012-04-16 06:12:12 51°13.636 2°56.018 4.9 269 6.1 102330 40
2012-04-16 06:12:18 51°13.636 2°56.018 5.1 308 6.1 102330 40
2012-04-16 06:12:22 51°13.635 2°56.019 4.3 21 6.1 102330 41
2012-04-16 06:12:28 51°13.635 2°56.018 4.7 62 6.1 102330 41
2012-04-16 06:12:32 51°13.635 2°56.018 2.5 270 6.1 102330 41
2012-04-16 06:12:38 51°13.635 2°56.019 3.8 54 6.1 102330 41
2012-04-16 06:12:42 51°13.635 2°56.019 3.4 264 6.1 102330 40
2012-04-16 06:12:47 51°13.635 2°56.018 6.6 56 6.1 102330 40
2012-04-16 06:12:52 51°13.636 2°56.018 7.7 26 6.1 102330 39
2012-04-16 06:12:57 51°13.636 2°56.017 3.2 306 6.1 102330 39
2012-04-16 06:13:02 51°13.635 2°56.019 4.5 267 6.1 102330 40
2012-04-16 06:13:07 51°13.635 2°56.019 6.4 57 6.1 102330 40
2012-04-16 06:13:13 51°13.635 2°56.019 4.7 268 6.1 102330 40
2012-04-16 06:13:18 51°13.636 2°56.019 4.5 306 6.1 102330 40
2012-04-16 06:13:22 51°13.636 2°56.018 5.4 269 6.1 102330 41
2012-04-16 06:13:27 51°13.635 2°56.019 6.1 300 6.1 102330 41
2012-04-16 06:13:33 51°13.635 2°56.02 4.1 23 6.1 102330 39
2012-04-16 06:13:37 51°13.635 2°56.019 4.1 54 6.1 102330 39
2012-04-16 06:13:42 51°13.635 2°56.019 3.6 269 6.1 102330 41
2012-04-16 06:13:47 51°13.636 2°56.019 3.4 305 6.1 102330 41
2012-04-16 06:13:52 51°13.636 2°56.019 3.3 267 6.1 102330 39
2012-04-16 06:13:57 51°13.636 2°56.019 5.1 309 6.1 102330 39
2012-04-16 06:14:02 51°13.636 2°56.019 4.4 262 6.1 102330 40
2012-04-16 06:14:07 51°13.636 2°56.019 4.5 308 6.1 102330 40
2012-04-16 06:14:13 51°13.636 2°56.019 4.1 270 6.1 102330 41
2012-04-16 06:14:17 51°13.635 2°56.019 3.3 60 6.1 102330 41
2012-04-16 06:14:23 51°13.636 2°56.019 2.6 32 6.1 102330 40
2012-04-16 06:14:28 51°13.636 2°56.019 3.5 57 6.1 102330 40
2012-04-16 06:14:32 51°13.636 2°56.019 4.6 14 6.2 102330 39
2012-04-16 06:14:38 51°13.636 2°56.019 4.2 300 6.2 102330 39
2012-04-16 06:14:43 51°13.636 2°56.018 3.6 270 6.2 102330 40
2012-04-16 06:14:48 51°13.636 2°56.019 3.2 310 6.2 102330 40
2012-04-16 06:14:52 51°13.636 2°56.019 4.4 26 6.2 102330 39
2012-04-16 06:14:57 51°13.636 2°56.019 4.5 58 6.2 102330 39
2012-04-16 06:15:03 51°13.634 2°56.018 2.4 266 6.2 102330 40
2012-04-16 06:15:07 51°13.633 2°56.018 3.8 311 6.2 102330 40
2012-04-16 06:15:12 51°13.633 2°56.018 3.7 28 6.2 102330 40
2012-04-16 06:15:17 51°13.634 2°56.017 3.4 52 6.2 102330 40
2012-04-16 06:15:22 51°13.634 2°56.018 4.1 270 6.2 102330 41
2012-04-16 06:15:28 51°13.634 2°56.018 4.2 308 6.2 102330 41
2012-04-16 06:15:32 51°13.635 2°56.019 3.4 266 6.2 102330 41
2012-04-16 06:15:37 51°13.635 2°56.018 4.1 308 6.2 102330 41
2012-04-16 06:15:42 51°13.635 2°56.018 3.7 268 6.2 102340 40
2012-04-16 06:15:48 51°13.635 2°56.018 4.6 51 6.2 102340 40
2012-04-16 06:15:52 51°13.635 2°56.018 6.4 247 6.2 102340 39
2012-04-16 06:15:57 51°13.634 2°56.018 5.1 307 6.2 102340 39
2012-04-16 06:16:02 51°13.634 2°56.017 3.6 270 6.2 102340 40
2012-04-16 06:16:07 51°13.634 2°56.017 4.6 60 6.2 102340 40
2012-04-16 06:16:12 51°13.633 2°56.017 4 28 6.2 102340 38
2012-04-16 06:16:17 51°13.633 2°56.017 4.3 59 6.2 102340 38
2012-04-16 06:16:22 51°13.634 2°56.017 5.8 261 6.2 102350 39
2012-04-16 06:16:27 51°13.634 2°56.017 4.3 303 6.2 102350 39
2012-04-16 06:16:32 51°13.634 2°56.017 4.6 267 6.2 102340 40
2012-04-16 06:16:37 51°13.634 2°56.017 5.6 55 6.2 102340 40
2012-04-16 06:16:43 51°13.633 2°56.018 6.9 24 6.2 102330 40
2012-04-16 06:16:47 51°13.634 2°56.017 5.6 52 6.2 102330 40
2012-04-16 06:16:52 51°13.634 2°56.017 4.3 25 6.2 102330 40
2012-04-16 06:16:57 51°13.633 2°56.018 4.4 49 6.2 102330 40
2012-04-16 06:17:02 51°13.633 2°56.018 4.4 269 6.2 102340 40
2012-04-16 06:17:07 51°13.633 2°56.018 3.6 308 6.2 102340 40
2012-04-16 06:17:12 51°13.633 2°56.018 4.4 28 6.2 102340 39
2012-04-16 06:17:17 51°13.633 2°56.018 4 310 6.2 102340 39
2012-04-16 06:17:23 51°13.634 2°56.018 6.2 26 6.2 102330 40
2012-04-16 06:17:27 51°13.634 2°56.019 5.9 53 6.2 102330 40
2012-04-16 06:17:32 51°13.634 2°56.019 3.2 266 6.2 102340 39
2012-04-16 06:17:37 51°13.635 2°56.019 4.4 304 6.2 102340 39
2012-04-16 06:17:42 51°13.635 2°56.019 6.7 270 6.2 102340 40
2012-04-16 06:17:48 51°13.635 2°56.019 5.7 57 6.2 102340 40
2012-04-16 06:17:52 51°13.635 2°56.019 6.5 22 6.2 102330 39
2012-04-16 06:17:57 51°13.635 2°56.019 3.9 52 6.2 102330 39
2012-04-16 06:18:02 51°13.635 2°56.02 4.3 14 6.2 102330 41
2012-04-16 06:18:08 51°13.636 2°56.02 3.6 55 6.2 102330 41
2012-04-16 06:18:12 51°13.636 2°56.02 4.3 29 6.1 102340 38
2012-04-16 06:18:17 51°13.636 2°56.02 4.7 305 6.1 102340 38
2012-04-16 06:18:22 51°13.636 2°56.02 3.6 22 6.2 102330 39
2012-04-16 06:18:27 51°13.636 2°56.02 3.4 303 6.2 102330 39
2012-04-16 06:18:32 51°13.636 2°56.019 3.7 263 6.2 102330 39
2012-04-16 06:18:37 51°13.636 2°56.019 3.7 62 6.2 102330 39
2012-04-16 06:18:42 51°13.636 2°56.019 3.2 270 6.2 102330 40
2012-04-16 06:18:47 51°13.635 2°56.02 2.9 307 6.2 102330 40
2012-04-16 06:18:52 51°13.636 2°56.019 3.4 267 6.2 102330 39
2012-04-16 06:18:57 51°13.636 2°56.019 3.1 53 6.2 102330 39
2012-04-16 06:19:03 51°13.636 2°56.019 5 24 6.2 102340 40
2012-04-16 06:19:07 51°13.636 2°56.019 4.9 59 6.2 102340 40
2012-04-16 06:19:12 51°13.636 2°56.019 3.8 266 6.2 102330 39
2012-04-16 06:19:17 51°13.636 2°56.019 4.6 309 6.2 102330 39
2012-04-16 06:19:22 51°13.636 2°56.019 5.6 265 6.2 102330 40
2012-04-16 06:19:27 51°13.635 2°56.02 3.8 311 6.2 102330 40
2012-04-16 06:19:32 51°13.636 2°56.019 4 263 6.2 102330 40
2012-04-16 06:19:37 51°13.635 2°56.02 2.3 311 6.2 102330 40
2012-04-16 06:19:43 51°13.636 2°56.02 4.5 19 6.2 102340 40
2012-04-16 06:19:47 51°13.636 2°56.02 2.5 48 6.2 102340 40
2012-04-16 06:19:52 51°13.636 2°56.02 4 22 6.2 102340 40
2012-04-16 06:19:57 51°13.635 2°56.02 3 301 6.2 102340 40
2012-04-16 06:20:02 51°13.635 2°56.02 3 267 6.2 102330 39
2012-04-16 06:20:08 51°13.636 2°56.019 2.7 306 6.2 102330 39
2012-04-16 06:20:12 51°13.636 2°56.019 3 22 6.2 102340 40
2012-04-16 06:20:17 51°13.635 2°56.019 4.4 308 6.2 102340 40
2012-04-16 06:20:22 51°13.635 2°56.019 3.3 270 6.2 102330 40
2012-04-16 06:20:28 51°13.635 2°56.019 3.7 304 6.2 102330 40
2012-04-16 06:20:32 51°13.635 2°56.019 6 29 6.2 102340 39
2012-04-16 06:20:37 51°13.635 2°56.018 4.7 311 6.2 102340 39
2012-04-16 06:20:42 51°13.635 2°56.018 5.7 19 6.2 102330 39
2012-04-16 06:20:47 51°13.635 2°56.019 5.7 54 6.2 102330 39
2012-04-16 06:20:52 51°13.635 2°56.019 5.5 268 6.2 102340 40
2012-04-16 06:20:57 51°13.635 2°56.019 7.1 53 6.2 102340 40
2012-04-16 06:21:02 51°13.635 2°56.019 8.3 270 6.2 102340 40
2012-04-16 06:21:07 51°13.635 2°56.019 6.7 54 6.2 102340 40
2012-04-16 06:21:12 51°13.635 2°56.019 6.9 20 6.2 102340 41
2012-04-16 06:21:17 51°13.635 2°56.019 4.4 52 6.2 102340 41
2012-04-16 06:21:23 51°13.635 2°56.019 3.9 259 6.2 102330 40
2012-04-16 06:21:27 51°13.635 2°56.019 6.2 63 6.2 102330 40
2012-04-16 06:21:32 51°13.635 2°56.019 8 26 6.2 102340 40
2012-04-16 06:21:37 51°13.635 2°56.019 5.8 310 6.2 102340 40
2012-04-16 06:21:42 51°13.635 2°56.019 9.1 263 6.2 102330 40
2012-04-16 06:21:47 51°13.635 2°56.02 5.9 309 6.2 102330 40
2012-04-16 06:21:52 51°13.635 2°56.019 6.2 267 6.2 102330 41
2012-04-16 06:21:57 51°13.635 2°56.02 7.8 54 6.2 102330 41
2012-04-16 06:22:03 51°13.636 2°56.019 6.2 267 6.2 102340 40
2012-04-16 06:22:08 51°13.636 2°56.018 4.7 59 6.2 102340 40
2012-04-16 06:22:12 51°13.635 2°56.018 5 269 6.2 102330 40
2012-04-16 06:22:17 51°13.634 2°56.019 4.5 52 6.2 102330 40
2012-04-16 06:22:22 51°13.635 2°56.019 6.1 14 6.2 102340 40
2012-04-16 06:22:28 51°13.635 2°56.019 4.2 263 6.2 102340 40
2012-04-16 06:22:32 51°13.635 2°56.02 3.3 28 6.2 102330 41
2012-04-16 06:22:37 51°13.635 2°56.019 5.7 305 6.2 102330 41
2012-04-16 06:22:42 51°13.635 2°56.02 6.1 16 6.2 102340 41
2012-04-16 06:22:47 51°13.635 2°56.021 7.1 59 6.2 102340 41
2012-04-16 06:22:52 51°13.635 2°56.02 5.6 24 6.2 102340 41
2012-04-16 06:22:57 51°13.635 2°56.02 4.6 54 6.2 102340 41
2012-04-16 06:23:02 51°13.635 2°56.02 6 25 6.2 102340 40
2012-04-16 06:23:07 51°13.635 2°56.02 3.2 305 6.2 102340 40
2012-04-16 06:23:12 51°13.635 2°56.02 5.2 28 6.2 102330 40
2012-04-16 06:23:18 51°13.635 2°56.02 1.7 54 6.2 102330 40
2012-04-16 06:23:22 51°13.635 2°56.02 3.5 29 6.2 102340 40
2012-04-16 06:23:27 51°13.635 2°56.019 5 298 6.2 102340 40
2012-04-16 06:23:32 51°13.635 2°56.02 3.5 268 6.2 102330 40
2012-04-16 06:23:37 51°13.635 2°56.02 4.9 311 6.2 102330 40
2012-04-16 06:23:42 51°13.635 2°56.021 3.7 27 6.2 102330 42
2012-04-16 06:23:47 51°13.636 2°56.02 7.3 52 6.2 102330 42
2012-04-16 06:23:52 51°13.635 2°56.019 4.5 265 6.2 102340 40
2012-04-16 06:23:57 51°13.635 2°56.019 5 307 6.2 102340 40
2012-04-16 06:24:03 51°13.635 2°56.019 7.3 30 6.2 102330 41
2012-04-16 06:24:08 51°13.635 2°56.019 4.2 54 6.2 102330 41
2012-04-16 06:24:12 51°13.635 2°56.019 5.4 263 6.2 102340 40
2012-04-16 06:24:17 51°13.635 2°56.019 3.9 311 6.2 102340 40
2012-04-16 06:24:22 51°13.636 2°56.019 6.7 270 6.2 102340 41
2012-04-16 06:24:27 51°13.636 2°56.02 3.7 307 6.2 102340 41
2012-04-16 06:24:32 51°13.636 2°56.02 4.8 267 6.2 102340 40
2012-04-16 06:24:37 51°13.636 2°56.02 5.1 50 6.2 102340 40
2012-04-16 06:24:42 51°13.636 2°56.02 3 21 6.2 102340 41
2012-04-16 06:24:48 51°13.635 2°56.02 3.6 50 6.2 102340 41
2012-04-16 06:24:52 51°13.635 2°56.02 4.3 266 6.2 102340 40
2012-04-16 06:24:57 51°13.635 2°56.02 2.8 304 6.2 102340 40
2012-04-16 06:25:02 51°13.636 2°56.02 4.2 269 6.2 102340 40
2012-04-16 06:25:07 51°13.636 2°56.02 3.2 309 6.2 102340 40
2012-04-16 06:25:12 51°13.636 2°56.021 3.6 23 6.2 102340 41
2012-04-16 06:25:17 51°13.635 2°56.02 5.6 57 6.2 102340 41
2012-04-16 06:25:22 51°13.635 2°56.02 3 26 6.2 102340 40
2012-04-16 06:25:27 51°13.636 2°56.02 5.1 303 6.2 102340 40
2012-04-16 06:25:32 51°13.635 2°56.02 5.7 270 6.2 102340 40
2012-04-16 06:25:37 51°13.635 2°56.02 4.6 47 6.2 102340 40
2012-04-16 06:25:42 51°13.635 2°56.019 6.2 269 6.2 102340 40
2012-04-16 06:25:47 51°13.635 2°56.02 6.9 52 6.2 102340 40
2012-04-16 06:25:52 51°13.635 2°56.019 6.2 25 6.2 102340 41
2012-04-16 06:25:58 51°13.634 2°56.019 3.8 55 6.2 102340 41
2012-04-16 06:26:03 51°13.634 2°56.019 5.6 265 6.2 102330 40
2012-04-16 06:26:07 51°13.635 2°56.018 5.7 56 6.2 102330 40
2012-04-16 06:26:12 51°13.634 2°56.019 6.1 29 6.2 102340 41
2012-04-16 06:26:17 51°13.635 2°56.019 7.2 51 6.2 102340 41
2012-04-16 06:26:23 51°13.635 2°56.019 5.6 269 6.2 102340 40
2012-04-16 06:26:27 51°13.635 2°56.019 8.3 51 6.2 102340 40
2012-04-16 06:26:32 51°13.635 2°56.019 7.2 22 6.2 102350 39
2012-04-16 06:26:37 51°13.635 2°56.019 5.2 57 6.2 102350 39
2012-04-16 06:26:42 51°13.635 2°56.019 5.1 21 6.1 102340 40
2012-04-16 06:26:48 51°13.635 2°56.019 4.8 55 6.1 102340 40
2012-04-16 06:26:52 51°13.635 2°56.019 5.1 266 6.1 102340 37
2012-04-16 06:26:57 51°13.635 2°56.019 4.8 304 6.1 102340 37
2012-04-16 06:27:02 51°13.635 2°56.019 4 268 6.1 102340 38
2012-04-16 06:27:08 51°13.635 2°56.019 5.5 58 6.1 102340 38
2012-04-16 06:27:12 51°13.635 2°56.019 3 15 6.1 102340 38
2012-04-16 06:27:17 51°13.635 2°56.019 2.7 52 6.1 102340 38
2012-04-16 06:27:22 51°13.635 2°56.018 5 267 6.1 102330 39
2012-04-16 06:27:27 51°13.635 2°56.019 5.6 58 6.1 102330 39
2012-04-16 06:27:32 51°13.636 2°56.019 4.1 269 6.1 102330 39
2012-04-16 06:27:37 51°13.635 2°56.019 4.1 53 6.1 102330 39
2012-04-16 06:27:42 51°13.636 2°56.019 4.4 259 6.1 102330 38
2012-04-16 06:27:47 51°13.636 2°56.019 3.4 59 6.1 102330 38
2012-04-16 06:27:52 51°13.635 2°56.019 5.4 270 6.1 102340 38
2012-04-16 06:27:58 51°13.635 2°56.019 4.9 53 6.1 102340 38
2012-04-16 06:28:02 51°13.635 2°56.018 4.8 269 6.2 102330 37
2012-04-16 06:28:07 51°13.635 2°56.019 8.2 311 6.2 102330 37
2012-04-16 06:28:12 51°13.635 2°56.019 3.9 25 6.2 102330 38
2012-04-16 06:28:17 51°13.635 2°56.019 5.2 57 6.2 102330 38
2012-04-16 06:28:23 51°13.635 2°56.019 5.4 265 6.1 102330 38
2012-04-16 06:28:27 51°13.635 2°56.019 4.4 311 6.1 102330 38
2012-04-16 06:28:32 51°13.635 2°56.019 4.6 19 6.2 102350 37
2012-04-16 06:28:37 51°13.635 2°56.019 5.3 55 6.2 102350 37
2012-04-16 06:28:43 51°13.636 2°56.019 4.2 259 6.1 102330 37
2012-04-16 06:28:47 51°13.636 2°56.019 6 307 6.1 102330 37
2012-04-16 06:28:52 51°13.636 2°56.019 5.1 267 6.2 102340 37
2012-04-16 06:28:57 51°13.636 2°56.019 3.9 306 6.2 102340 37
2012-04-16 06:29:02 51°13.636 2°56.019 6 26 6.2 102340 37
2012-04-16 06:29:08 51°13.636 2°56.019 6.4 308 6.2 102340 37
2012-04-16 06:29:12 51°13.636 2°56.019 5.7 27 6.2 102340 39
2012-04-16 06:29:17 51°13.636 2°56.02 4.1 313 6.2 102340 39
2012-04-16 06:29:22 51°13.636 2°56.02 6 270 6.2 102340 38
2012-04-16 06:29:27 51°13.636 2°56.02 5.1 61 6.2 102340 38
2012-04-16 06:29:32 51°13.636 2°56.02 6.7 24 6.2 102360 36
2012-04-16 06:29:37 51°13.636 2°56.02 6.6 302 6.2 102360 36
2012-04-16 06:29:42 51°13.636 2°56.02 5.4 27 6.2 102340 38
2012-04-16 06:29:47 51°13.636 2°56.02 3.4 56 6.2 102340 38
2012-04-16 06:29:52 51°13.637 2°56.02 5.1 269 6.2 102340 38
2012-04-16 06:29:57 51°13.636 2°56.02 5.3 311 6.2 102340 38
2012-04-16 06:30:02 51°13.636 2°56.02 4.3 269 6.2 102350 37
2012-04-16 06:30:07 51°13.637 2°56.02 6.4 308 6.2 102350 37
2012-04-16 06:30:12 51°13.637 2°56.02 5.3 268 6.2 102340 38
2012-04-16 06:30:18 51°13.636 2°56.02 4 306 6.2 102340 38
2012-04-16 06:30:23 51°13.637 2°56.02 5.6 24 6.2 102350 38
2012-04-16 06:30:27 51°13.637 2°56.019 2.7 48 6.2 102350 38
2012-04-16 06:30:32 51°13.637 2°56.02 4.7 270 6.2 102350 37
2012-04-16 06:30:37 51°13.637 2°56.019 4.4 310 6.2 102350 37
2012-04-16 06:30:42 51°13.638 2°56.019 5.2 266 6.2 102340 38
2012-04-16 06:30:47 51°13.637 2°56.02 4.9 314 6.2 102340 38
2012-04-16 06:30:52 51°13.636 2°56.02 4.7 22 6.2 102340 39
2012-04-16 06:30:57 51°13.637 2°56.02 5.5 56 6.2 102340 39
2012-04-16 06:31:03 51°13.637 2°56.02 4.6 265 6.2 102350 38
2012-04-16 06:31:08 51°13.636 2°56.02 4.4 311 6.2 102350 38
2012-04-16 06:31:12 51°13.636 2°56.02 4.1 266 6.2 102340 37
2012-04-16 06:31:17 51°13.636 2°56.02 6.4 56 6.2 102340 37
2012-04-16 06:31:22 51°13.636 2°56.02 7.2 270 6.2 102340 38
2012-04-16 06:31:28 51°13.637 2°56.02 6.2 60 6.2 102340 38
2012-04-16 06:31:32 51°13.636 2°56.02 6.3 270 6.2 102360 39
2012-04-16 06:31:37 51°13.636 2°56.02 6 47 6.2 102360 39
2012-04-16 06:31:42 51°13.636 2°56.02 4.4 266 6.2 102350 37
2012-04-16 06:31:47 51°13.636 2°56.019 4.5 21 6.2 102350 37
2012-04-16 06:31:52 51°13.636 2°56.02 5.4 23 6.2 102330 39
2012-04-16 06:31:57 51°13.637 2°56.019 5.9 50 6.2 102330 39
2012-04-16 06:32:02 51°13.637 2°56.02 6.1 24 6.2 102350 38
2012-04-16 06:32:07 51°13.636 2°56.02 5.3 57 6.2 102350 38
2012-04-16 06:32:12 51°13.636 2°56.019 6.3 265 6.2 102350 36
2012-04-16 06:32:18 51°13.636 2°56.02 6 309 6.2 102350 36
2012-04-16 06:32:22 51°13.636 2°56.019 5.8 20 6.3 102350 37
2012-04-16 06:32:27 51°13.636 2°56.02 3.9 306 6.3 102350 37
2012-04-16 06:32:32 51°13.637 2°56.019 4.4 260 6.2 102350 38
2012-04-16 06:32:37 51°13.637 2°56.019 3.7 54 6.2 102350 38
2012-04-16 06:32:42 51°13.636 2°56.019 1.6 24 6.2 102360 38
2012-04-16 06:32:47 51°13.636 2°56.019 5.5 52 6.2 102360 38
2012-04-16 06:32:52 51°13.637 2°56.019 3.8 270 6.2 102340 38
2012-04-16 06:32:57 51°13.636 2°56.019 3.9 308 6.2 102340 38
2012-04-16 06:33:02 51°13.636 2°56.019 3.4 264 6.2 102340 37
2012-04-16 06:33:07 51°13.636 2°56.019 3.8 51 6.2 102340 37
2012-04-16 06:33:12 51°13.636 2°56.019 2.6 259 6.3 102340 37
2012-04-16 06:33:17 51°13.637 2°56.018 2.7 303 6.3 102340 37
2012-04-16 06:33:22 51°13.636 2°56.018 4 266 6.3 102340 37
2012-04-16 06:33:27 51°13.637 2°56.018 3.5 53 6.3 102340 37
2012-04-16 06:33:32 51°13.637 2°56.018 5.4 30 6.3 102340 38
2012-04-16 06:33:37 51°13.637 2°56.018 6.6 62 6.3 102340 38
2012-04-16 06:33:42 51°13.637 2°56.018 4 263 6.3 102340 38
2012-04-16 06:33:47 51°13.637 2°56.019 4.1 308 6.3 102340 38
2012-04-16 06:33:52 51°13.636 2°56.019 4.2 269 6.3 102340 38
2012-04-16 06:33:57 51°13.636 2°56.019 5.3 58 6.3 102340 38
2012-04-16 06:34:02 51°13.636 2°56.019 4.1 25 6.3 102340 39
2012-04-16 06:34:07 51°13.636 2°56.019 4.6 50 6.3 102340 39
2012-04-16 06:34:12 51°13.637 2°56.019 3.3 268 6.3 102340 38
2012-04-16 06:34:17 51°13.637 2°56.019 4.6 56 6.3 102340 38
2012-04-16 06:34:22 51°13.637 2°56.019 4.6 269 6.3 102340 39
2012-04-16 06:34:27 51°13.637 2°56.018 4.8 311 6.3 102340 39
2012-04-16 06:34:32 51°13.637 2°56.019 5.6 22 6.3 102340 38
2012-04-16 06:34:37 51°13.637 2°56.019 3.4 60 6.3 102340 38
2012-04-16 06:34:42 51°13.637 2°56.019 3.5 257 6.3 102340 38
2012-04-16 06:34:47 51°13.637 2°56.019 4.3 304 6.3 102340 38
2012-04-16 06:34:52 51°13.637 2°56.019 4.7 269 6.3 102340 37
2012-04-16 06:34:58 51°13.637 2°56.019 4 61 6.3 102340 37
2012-04-16 06:35:03 51°13.637 2°56.018 3.8 22 6.3 102340 38
2012-04-16 06:35:07 51°13.636 2°56.019 4.7 61 6.3 102340 38
2012-04-16 06:35:12 51°13.636 2°56.019 4.7 23 6.3 102340 37
2012-04-16 06:35:17 51°13.636 2°56.019 4.8 53 6.3 102340 37
2012-04-16 06:35:22 51°13.636 2°56.019 4.2 18 6.3 102340 38
2012-04-16 06:35:27 51°13.636 2°56.019 3.9 55 6.3 102340 38
2012-04-16 06:35:32 51°13.636 2°56.019 2.5 266 6.3 102340 40
2012-04-16 06:35:37 51°13.636 2°56.019 2.5 57 6.3 102340 40
2012-04-16 06:35:42 51°13.636 2°56.019 2.9 269 6.3 102340 37
2012-04-16 06:35:48 51°13.636 2°56.019 6.3 304 6.3 102340 37
2012-04-16 06:35:52 51°13.636 2°56.019 5.2 269 6.3 102340 38
2012-04-16 06:35:57 51°13.636 2°56.019 5.1 56 6.3 102340 38
2012-04-16 06:36:02 51°13.636 2°56.019 5.2 269 6.3 102340 39
2012-04-16 06:36:07 51°13.636 2°56.019 7.2 12 6.3 102340 39
2012-04-16 06:36:12 51°13.636 2°56.019 5.1 251 6.3 102340 38
2012-04-16 06:36:17 51°13.635 2°56.019 6.7 305 6.3 102340 38
2012-04-16 06:36:22 51°13.636 2°56.019 6.1 268 6.3 102340 38
2012-04-16 06:36:27 51°13.635 2°56.019 4.7 307 6.3 102340 38
2012-04-16 06:36:32 51°13.635 2°56.019 6.1 31 6.3 102350 37
2012-04-16 06:36:37 51°13.635 2°56.019 5.4 307 6.3 102350 37
2012-04-16 06:36:42 51°13.635 2°56.019 4 266 6.3 102350 37
2012-04-16 06:36:47 51°13.636 2°56.019 4.8 299 6.3 102350 37
2012-04-16 06:36:52 51°13.635 2°56.019 3.8 266 6.3 102340 37
2012-04-16 06:36:58 51°13.636 2°56.019 4 302 6.3 102340 37
2012-04-16 06:37:02 51°13.635 2°56.019 4.9 21 6.3 102360 39
2012-04-16 06:37:07 51°13.635 2°56.019 4.5 313 6.3 102360 39
2012-04-16 06:37:12 51°13.635 2°56.019 3.7 268 6.3 102350 39
2012-04-16 06:37:17 51°13.635 2°56.019 4.7 54 6.3 102350 39
2012-04-16 06:37:23 51°13.635 2°56.019 4.3 23 6.3 102340 39
2012-04-16 06:37:27 51°13.635 2°56.019 7.2 61 6.3 102340 39
2012-04-16 06:37:32 51°13.635 2°56.019 4.5 339 6.3 102340 38
2012-04-16 06:37:37 51°13.636 2°56.019 3.7 313 6.3 102340 38
2012-04-16 06:37:42 51°13.636 2°56.019 3.1 260 6.3 102340 39
2012-04-16 06:37:47 51°13.636 2°56.018 3.9 54 6.3 102340 39
2012-04-16 06:37:52 51°13.636 2°56.018 3.2 262 6.3 102350 39
2012-04-16 06:37:57 51°13.636 2°56.019 4.8 57 6.3 102350 39
2012-04-16 06:38:02 51°13.635 2°56.019 4 22 6.3 102350 39
2012-04-16 06:38:08 51°13.635 2°56.019 4.3 309 6.3 102350 39
2012-04-16 06:38:12 51°13.635 2°56.019 5.7 29 6.3 102340 38
2012-04-16 06:38:17 51°13.635 2°56.019 5.1 265 6.3 102340 38
2012-04-16 06:38:22 51°13.635 2°56.019 4 264 6.3 102340 39
2012-04-16 06:38:27 51°13.635 2°56.02 6 308 6.3 102340 39
2012-04-16 06:38:32 51°13.635 2°56.019 6.6 263 6.3 102350 40
2012-04-16 06:38:37 51°13.635 2°56.019 5.5 304 6.3 102350 40
2012-04-16 06:38:42 51°13.635 2°56.019 5.5 270 6.3 102340 39
2012-04-16 06:38:47 51°13.635 2°56.019 4.1 54 6.3 102340 39
2012-04-16 06:38:52 51°13.636 2°56.019 4.3 24 6.2 102340 39
2012-04-16 06:38:57 51°13.635 2°56.019 4.2 59 6.2 102340 39
2012-04-16 06:39:02 51°13.635 2°56.019 6.4 261 6.2 102360 39
2012-04-16 06:39:07 51°13.635 2°56.019 4.3 305 6.2 102360 39
2012-04-16 06:39:12 51°13.635 2°56.019 5.6 23 6.2 102350 38
2012-04-16 06:39:17 51°13.635 2°56.019 3.9 305 6.2 102350 38
2012-04-16 06:39:23 51°13.636 2°56.019 3.5 270 6.2 102340 39
2012-04-16 06:39:27 51°13.636 2°56.019 5.9 51 6.2 102340 39
2012-04-16 06:39:32 51°13.635 2°56.019 3.7 265 6.2 102350 38
2012-04-16 06:39:37 51°13.635 2°56.019 6.2 305 6.2 102350 38
2012-04-16 06:39:42 51°13.636 2°56.019 3.8 267 6.2 102340 39
2012-04-16 06:39:47 51°13.636 2°56.019 3.5 54 6.2 102340 39
2012-04-16 06:39:52 51°13.636 2°56.019 2.1 265 6.2 102340 39
2012-04-16 06:39:57 51°13.636 2°56.019 2.6 304 6.2 102340 39
2012-04-16 06:40:02 51°13.636 2°56.018 1.7 270 6.2 102340 39
2012-04-16 06:40:08 51°13.636 2°56.019 5.6 49 6.2 102340 39
2012-04-16 06:40:12 51°13.635 2°56.02 5.8 24 6.2 102340 38
2012-04-16 06:40:17 51°13.635 2°56.019 3.6 304 6.2 102340 38
2012-04-16 06:40:22 51°13.636 2°56.019 3.3 263 6.2 102340 39
2012-04-16 06:40:27 51°13.636 2°56.019 3.4 303 6.2 102340 39
2012-04-16 06:40:32 51°13.636 2°56.019 3.8 29 6.2 102340 40
2012-04-16 06:40:37 51°13.636 2°56.019 1.7 52 6.2 102340 40
2012-04-16 06:40:42 51°13.636 2°56.019 2.4 29 6.2 102340 39
2012-04-16 06:40:47 51°13.636 2°56.019 4.8 56 6.2 102340 39
2012-04-16 06:40:52 51°13.636 2°56.019 5.9 24 6.2 102340 39
2012-04-16 06:40:57 51°13.636 2°56.019 5 302 6.2 102340 39
2012-04-16 06:41:02 51°13.636 2°56.019 3.9 269 6.2 102340 40
2012-04-16 06:41:07 51°13.636 2°56.019 4.2 307 6.2 102340 40
2012-04-16 06:41:12 51°13.636 2°56.019 3.2 268 6.2 102340 40
2012-04-16 06:41:18 51°13.636 2°56.019 5 306 6.2 102340 40
2012-04-16 06:41:22 51°13.636 2°56.019 4.8 26 6.2 102350 39
2012-04-16 06:41:27 51°13.636 2°56.019 3.6 311 6.2 102350 39
2012-04-16 06:41:32 51°13.636 2°56.019 4.8 27 6.2 102340 41
2012-04-16 06:41:37 51°13.636 2°56.019 4.1 55 6.2 102340 41
2012-04-16 06:41:42 51°13.636 2°56.019 4.4 25 6.2 102340 38
2012-04-16 06:41:47 51°13.636 2°56.019 7.1 59 6.2 102340 38
2012-04-16 06:41:52 51°13.636 2°56.019 5.4 270 6.2 102340 39
2012-04-16 06:41:57 51°13.636 2°56.019 4.3 310 6.2 102340 39
2012-04-16 06:42:03 51°13.636 2°56.019 3.5 270 6.2 102340 39
2012-04-16 06:42:07 51°13.636 2°56.019 4.3 311 6.2 102340 39
2012-04-16 06:42:12 51°13.636 2°56.019 3.4 263 6.2 102330 38
2012-04-16 06:42:17 51°13.636 2°56.019 2.4 310 6.2 102330 38
2012-04-16 06:42:22 51°13.636 2°56.019 3.9 263 6.1 102340 39
2012-04-16 06:42:27 51°13.636 2°56.019 4.1 50 6.1 102340 39
2012-04-16 06:42:32 51°13.636 2°56.019 3.1 263 6.1 102340 39
2012-04-16 06:42:37 51°13.636 2°56.019 4.3 306 6.1 102340 39
2012-04-16 06:42:42 51°13.636 2°56.018 4.6 267 6.1 102340 39
2012-04-16 06:42:48 51°13.636 2°56.018 3.8 314 6.1 102340 39
2012-04-16 06:42:52 51°13.636 2°56.018 2.8 268 6.1 102350 37
2012-04-16 06:42:57 51°13.636 2°56.019 3.3 305 6.1 102350 37
2012-04-16 06:43:02 51°13.636 2°56.018 3.4 262 6.1 102350 39
2012-04-16 06:43:07 51°13.636 2°56.018 3.1 52 6.1 102350 39
2012-04-16 06:43:12 51°13.636 2°56.018 4.8 270 6.1 102340 38
2012-04-16 06:43:17 51°13.636 2°56.018 3.3 308 6.1 102340 38
2012-04-16 06:43:22 51°13.636 2°56.018 3.7 264 6.1 102350 39
2012-04-16 06:43:27 51°13.636 2°56.019 3.4 303 6.1 102350 39
2012-04-16 06:43:32 51°13.636 2°56.019 5.5 270 6.1 102340 38
2012-04-16 06:43:37 51°13.636 2°56.019 3.1 305 6.1 102340 38
2012-04-16 06:43:42 51°13.636 2°56.019 3.1 265 6.1 102340 38
2012-04-16 06:43:47 51°13.636 2°56.019 3.8 305 6.1 102340 38
2012-04-16 06:43:52 51°13.636 2°56.019 3.7 263 6.1 102340 40
2012-04-16 06:43:57 51°13.636 2°56.019 2.8 310 6.1 102340 40
2012-04-16 06:44:02 51°13.636 2°56.019 4 23 6.1 102340 38
2012-04-16 06:44:07 51°13.636 2°56.019 2.4 313 6.1 102340 38
2012-04-16 06:44:12 51°13.636 2°56.019 6.3 259 6.1 102350 38
2012-04-16 06:44:17 51°13.636 2°56.019 3.8 279 6.1 102350 38
2012-04-16 06:44:22 51°13.636 2°56.019 4.4 262 6.1 102350 39
2012-04-16 06:44:27 51°13.636 2°56.019 3.4 307 6.1 102350 39
2012-04-16 06:44:32 51°13.636 2°56.019 2.2 266 6.1 102340 40
2012-04-16 06:44:37 51°13.636 2°56.019 3.8 52 6.1 102340 40
2012-04-16 06:44:42 51°13.636 2°56.019 3.7 270 6.1 102340 39
2012-04-16 06:44:48 51°13.636 2°56.019 3.4 309 6.1 102340 39
2012-04-16 06:44:52 51°13.636 2°56.019 3.4 270 6.1 102340 40
2012-04-16 06:44:57 51°13.636 2°56.019 3.9 50 6.1 102340 40
2012-04-16 06:45:02 51°13.636 2°56.019 3.1 270 6.1 102340 40
2012-04-16 06:45:07 51°13.636 2°56.019 2.6 310 6.1 102340 40
2012-04-16 06:45:12 51°13.636 2°56.019 2.2 264 6.1 102340 38
2012-04-16 06:45:17 51°13.636 2°56.019 3 281 6.1 102340 38
2012-04-16 06:45:22 51°13.636 2°56.019 3.2 265 6.1 102340 39
2012-04-16 06:45:27 51°13.636 2°56.019 3.3 308 6.1 102340 39
2012-04-16 06:45:32 51°13.636 2°56.019 3.2 268 6.2 102340 37
2012-04-16 06:45:37 51°13.636 2°56.02 3.4 303 6.2 102340 37
2012-04-16 06:45:42 51°13.636 2°56.02 4.3 22 6.2 102340 39
2012-04-16 06:45:47 51°13.636 2°56.019 3.8 56 6.2 102340 39
2012-04-16 06:45:52 51°13.636 2°56.019 2.7 265 6.2 102340 39
2012-04-16 06:45:58 51°13.636 2°56.02 5.7 41 6.2 102340 39
2012-04-16 06:46:02 51°13.636 2°56.019 4.1 28 6.2 102350 40
2012-04-16 06:46:07 51°13.636 2°56.02 6.3 40 6.2 102350 40
2012-04-16 06:46:12 51°13.636 2°56.02 6.4 21 6.2 102350 40
2012-04-16 06:46:17 51°13.636 2°56.02 5.2 54 6.2 102350 40
2012-04-16 06:46:23 51°13.636 2°56.019 5.8 30 6.2 102340 38
2012-04-16 06:46:27 51°13.636 2°56.019 6.7 39 6.2 102340 38
2012-04-16 06:46:32 51°13.636 2°56.019 5.3 270 6.2 102350 39
2012-04-16 06:46:37 51°13.636 2°56.019 5.7 309 6.2 102350 39
2012-04-16 06:46:42 51°13.636 2°56.019 3.1 19 6.2 102350 39
2012-04-16 06:46:48 51°13.637 2°56.019 5.6 267 6.2 102350 39
2012-04-16 06:46:52 51°13.636 2°56.019 4.4 264 6.2 102350 39
2012-04-16 06:46:57 51°13.636 2°56.019 4.3 270 6.2 102350 39
2012-04-16 06:47:02 51°13.637 2°56.019 3.4 266 6.2 102340 39
2012-04-16 06:47:08 51°13.637 2°56.019 4.5 39 6.2 102340 39
2012-04-16 06:47:12 51°13.637 2°56.019 4.6 270 6.3 102350 39
2012-04-16 06:47:17 51°13.637 2°56.019 5.9 37 6.3 102350 39
2012-04-16 06:47:22 51°13.637 2°56.019 5.4 267 6.3 102350 38
2012-04-16 06:47:27 51°13.637 2°56.019 4.8 62 6.3 102350 38
2012-04-16 06:47:32 51°13.637 2°56.019 3.3 262 6.3 102340 38
2012-04-16 06:47:37 51°13.637 2°56.019 5.7 38 6.3 102340 38
2012-04-16 06:47:42 51°13.637 2°56.019 4.4 266 6.3 102340 39
2012-04-16 06:47:47 51°13.637 2°56.018 5.1 267 6.3 102340 39
2012-04-16 06:47:52 51°13.637 2°56.018 4.8 264 6.3 102360 39
2012-04-16 06:47:57 51°13.637 2°56.018 4.1 35 6.3 102360 39
2012-04-16 06:48:02 51°13.636 2°56.018 4.5 14 6.3 102350 39
2012-04-16 06:48:07 51°13.636 2°56.018 4.7 268 6.3 102350 39
2012-04-16 06:48:12 51°13.637 2°56.018 6.6 268 6.3 102360 38
2012-04-16 06:48:17 51°13.637 2°56.018 6.2 265 6.3 102360 38
2012-04-16 06:48:23 51°13.637 2°56.018 5.3 24 6.3 102340 39
2012-04-16 06:48:27 51°13.637 2°56.018 7.8 32 6.3 102340 39
2012-04-16 06:48:32 51°13.637 2°56.018 7.8 270 6.3 102350 38
2012-04-16 06:48:37 51°13.637 2°56.018 5.5 53 6.3 102350 38
2012-04-16 06:48:42 51°13.637 2°56.018 5.4 26 6.3 102350 39
2012-04-16 06:48:47 51°13.637 2°56.018 4.8 264 6.3 102350 39
2012-04-16 06:48:52 51°13.636 2°56.018 4.1 270 6.3 102340 39
2012-04-16 06:48:57 51°13.636 2°56.018 4.5 268 6.3 102340 39
2012-04-16 06:49:02 51°13.637 2°56.018 5.3 263 6.3 102360 39
2012-04-16 06:49:08 51°13.637 2°56.018 3.3 41 6.3 102360 39
2012-04-16 06:49:12 51°13.637 2°56.018 3.1 21 6.2 102350 39
2012-04-16 06:49:17 51°13.637 2°56.018 2.3 270 6.2 102350 39
2012-04-16 06:49:22 51°13.637 2°56.018 2.9 22 6.3 102340 37
2012-04-16 06:49:27 51°13.637 2°56.018 3.7 53 6.3 102340 37
2012-04-16 06:49:32 51°13.637 2°56.018 3 17 6.3 102350 39
2012-04-16 06:49:37 51°13.637 2°56.018 3.5 37 6.3 102350 39
2012-04-16 06:49:42 51°13.636 2°56.018 5.1 260 6.3 102340 38
2012-04-16 06:49:47 51°13.636 2°56.018 3.4 309 6.3 102340 38
2012-04-16 06:49:52 51°13.636 2°56.018 4.1 266 6.3 102340 38
2012-04-16 06:49:57 51°13.636 2°56.018 5.3 266 6.3 102340 38
2012-04-16 06:50:02 51°13.636 2°56.018 4.7 24 6.3 102340 38
2012-04-16 06:50:07 51°13.637 2°56.018 5.1 37 6.3 102340 38
2012-04-16 06:50:12 51°13.636 2°56.018 6.2 21 6.3 102340 39
2012-04-16 06:50:17 51°13.636 2°56.018 4.2 34 6.3 102340 39
2012-04-16 06:50:22 51°13.636 2°56.018 3.9 23 6.3 102350 39
2012-04-16 06:50:27 51°13.636 2°56.018 5.1 33 6.3 102350 39
2012-04-16 06:50:32 51°13.636 2°56.018 5 263 6.3 102340 39
2012-04-16 06:50:37 51°13.636 2°56.018 3 57 6.3 102340 39
2012-04-16 06:50:42 51°13.636 2°56.018 5 25 6.3 102350 39
2012-04-16 06:50:47 51°13.636 2°56.018 6.2 32 6.3 102350 39
2012-04-16 06:50:52 51°13.636 2°56.018 3.7 265 6.3 102340 36
2012-04-16 06:50:57 51°13.636 2°56.018 5.3 57 6.3 102340 36
2012-04-16 06:51:03 51°13.636 2°56.018 4.7 21 6.3 102340 38
2012-04-16 06:51:08 51°13.636 2°56.018 4.6 37 6.3 102340 38
2012-04-16 06:51:12 51°13.636 2°56.019 5.2 28 6.3 102350 39
2012-04-16 06:51:17 51°13.636 2°56.019 4.6 49 6.3 102350 39
2012-04-16 06:51:22 51°13.636 2°56.019 4.7 32 6.3 102350 38
2012-04-16 06:51:27 51°13.636 2°56.019 5.7 269 6.3 102350 38
2012-04-16 06:51:32 51°13.636 2°56.019 5.4 269 6.3 102350 38
2012-04-16 06:51:37 51°13.636 2°56.019 5.7 270 6.3 102350 38
2012-04-16 06:51:42 51°13.636 2°56.019 5.2 264 6.3 102340 39
2012-04-16 06:51:47 51°13.636 2°56.019 4.6 312 6.3 102340 39
2012-04-16 06:51:52 51°13.636 2°56.019 4.7 264 6.3 102350 39
2012-04-16 06:51:57 51°13.636 2°56.019 3.8 32 6.3 102350 39
2012-04-16 06:52:02 51°13.636 2°56.019 3.9 22 6.3 102350 39
2012-04-16 06:52:07 51°13.636 2°56.019 2.7 35 6.3 102350 39
2012-04-16 06:52:12 51°13.636 2°56.019 3.1 26 6.3 102340 38
2012-04-16 06:52:17 51°13.636 2°56.019 4.8 268 6.3 102340 38
2012-04-16 06:52:22 51°13.636 2°56.019 5.8 24 6.3 102350 39
2012-04-16 06:52:27 51°13.635 2°56.019 4.3 266 6.3 102350 39
2012-04-16 06:52:32 51°13.635 2°56.019 5 23 6.3 102350 38
2012-04-16 06:52:37 51°13.635 2°56.019 3.7 35 6.3 102350 38
2012-04-16 06:52:42 51°13.635 2°56.019 3.5 270 6.3 102340 39
2012-04-16 06:52:47 51°13.635 2°56.019 5.9 26 6.3 102340 39
2012-04-16 06:52:52 51°13.635 2°56.019 5.7 270 6.3 102350 39
2012-04-16 06:52:58 51°13.635 2°56.019 4.1 265 6.3 102350 39
2012-04-16 06:53:02 51°13.635 2°56.019 5.5 329 6.3 102350 39
2012-04-16 06:53:07 51°13.635 2°56.019 4.9 254 6.3 102350 39
2012-04-16 06:53:12 51°13.635 2°56.019 4.6 268 6.3 102350 39
2012-04-16 06:53:17 51°13.635 2°56.019 4.9 16 6.3 102350 39
2012-04-16 06:53:23 51°13.635 2°56.019 7.1 26 6.3 102350 39
2012-04-16 06:53:27 51°13.635 2°56.019 6.2 270 6.3 102350 39
2012-04-16 06:53:32 51°13.635 2°56.019 4.6 21 6.3 102350 37
2012-04-16 06:53:37 51°13.636 2°56.019 5.2 308 6.3 102350 37
2012-04-16 06:53:42 51°13.635 2°56.019 5.1 33 6.3 102350 38
2012-04-16 06:53:48 51°13.636 2°56.019 4 38 6.3 102350 38
2012-04-16 06:53:52 51°13.635 2°56.019 2.9 20 6.3 102350 39
2012-04-16 06:53:57 51°13.635 2°56.019 2.9 34 6.3 102350 39
2012-04-16 06:54:02 51°13.636 2°56.019 2.1 20 6.3 102350 39
2012-04-16 06:54:07 51°13.636 2°56.019 3.3 313 6.3 102350 39
2012-04-16 06:54:12 51°13.636 2°56.019 3.5 25 6.3 102340 39
2012-04-16 06:54:17 51°13.636 2°56.019 3.2 270 6.3 102340 39
2012-04-16 06:54:22 51°13.636 2°56.019 5.5 27 6.3 102350 39
2012-04-16 06:54:27 51°13.636 2°56.019 6.1 305 6.3 102350 39
2012-04-16 06:54:32 51°13.636 2°56.019 6 269 6.3 102350 39
2012-04-16 06:54:37 51°13.636 2°56.019 6.9 346 6.3 102350 39
2012-04-16 06:54:42 51°13.636 2°56.019 5.7 263 6.3 102350 38
2012-04-16 06:54:47 51°13.636 2°56.019 7.3 270 6.3 102350 38
2012-04-16 06:54:52 51°13.636 2°56.019 6.1 270 6.3 102360 39
2012-04-16 06:54:58 51°13.636 2°56.019 4.9 264 6.3 102360 39
2012-04-16 06:55:02 51°13.636 2°56.019 5.7 265 6.3 102340 38
2012-04-16 06:55:07 51°13.636 2°56.019 4.7 269 6.3 102340 38
2012-04-16 06:55:12 51°13.636 2°56.019 5.2 269 6.3 102350 38
2012-04-16 06:55:17 51°13.636 2°56.019 4.3 305 6.3 102350 38
2012-04-16 06:55:23 51°13.636 2°56.019 3.3 265 6.3 102360 39
2012-04-16 06:55:27 51°13.636 2°56.019 4.5 269 6.3 102360 39
2012-04-16 06:55:32 51°13.636 2°56.019 3.2 267 6.3 102360 39
2012-04-16 06:55:37 51°13.636 2°56.019 4 307 6.3 102360 39
2012-04-16 06:55:42 51°13.636 2°56.019 3.3 267 6.3 102350 40
2012-04-16 06:55:47 51°13.636 2°56.019 3.2 34 6.3 102350 40
2012-04-16 06:55:52 51°13.636 2°56.019 3.1 22 6.3 102350 39
2012-04-16 06:55:57 51°13.636 2°56.019 4.7 263 6.3 102350 39
2012-04-16 06:56:02 51°13.636 2°56.019 4.9 262 6.3 102350 39
2012-04-16 06:56:08 51°13.636 2°56.019 5.1 262 6.3 102350 39
2012-04-16 06:56:12 51°13.636 2°56.019 5.3 260 6.3 102350 39
2012-04-16 06:56:17 51°13.636 2°56.019 3.8 262 6.3 102350 39
2012-04-16 06:56:22 51°13.636 2°56.018 4.6 264 6.3 102350 39
2012-04-16 06:56:27 51°13.636 2°56.018 3.7 307 6.3 102350 39
2012-04-16 06:56:32 51°13.636 2°56.018 3.6 263 6.3 102350 39
2012-04-16 06:56:37 51°13.636 2°56.018 4.9 262 6.3 102350 39
2012-04-16 06:56:42 51°13.636 2°56.018 3.7 267 6.3 102350 40
2012-04-16 06:56:47 51°13.636 2°56.018 3.2 264 6.3 102350 40
2012-04-16 06:56:52 51°13.636 2°56.018 3.1 31 6.3 102360 39
2012-04-16 06:56:57 51°13.636 2°56.018 2.2 264 6.3 102360 39
2012-04-16 06:57:02 51°13.636 2°56.018 3.5 268 6.2 102360 40
2012-04-16 06:57:07 51°13.636 2°56.018 4.5 39 6.2 102360 40
2012-04-16 06:57:12 51°13.636 2°56.018 4.4 267 6.2 102350 40
2012-04-16 06:57:17 51°13.636 2°56.018 3.7 267 6.2 102350 40
2012-04-16 06:57:22 51°13.636 2°56.018 4.1 268 6.2 102350 39
2012-04-16 06:57:27 51°13.636 2°56.018 5.3 267 6.2 102350 39
2012-04-16 06:57:32 51°13.636 2°56.018 4.2 16 6.2 102350 41
2012-04-16 06:57:37 51°13.636 2°56.018 3.7 310 6.2 102350 41
2012-04-16 06:57:42 51°13.636 2°56.018 2.6 270 6.2 102350 40
2012-04-16 06:57:47 51°13.636 2°56.018 3.3 35 6.2 102350 40
2012-04-16 06:57:52 51°13.636 2°56.018 2.7 258 6.2 102350 40
2012-04-16 06:57:57 51°13.636 2°56.018 3.5 35 6.2 102350 40
2012-04-16 06:58:02 51°13.636 2°56.018 4.6 26 6.2 102350 41
2012-04-16 06:58:07 51°13.636 2°56.018 3.9 262 6.2 102350 41
2012-04-16 06:58:12 51°13.636 2°56.018 3.8 269 6.2 102350 41
2012-04-16 06:58:17 51°13.636 2°56.018 4.9 34 6.2 102350 41
2012-04-16 06:58:22 51°13.636 2°56.018 5.8 270 6.2 102350 40
2012-04-16 06:58:27 51°13.636 2°56.018 6.5 53 6.2 102350 40
2012-04-16 06:58:32 51°13.636 2°56.018 5.9 269 6.3 102350 41
2012-04-16 06:58:37 51°13.636 2°56.018 3.5 263 6.3 102350 41
2012-04-16 06:58:42 51°13.636 2°56.018 4.8 25 6.3 102350 39
2012-04-16 06:58:47 51°13.636 2°56.018 5.9 53 6.3 102350 39
2012-04-16 06:58:52 51°13.636 2°56.018 3.2 267 6.2 102350 38
2012-04-16 06:58:57 51°13.636 2°56.018 3.4 269 6.2 102350 38
2012-04-16 06:59:02 51°13.636 2°56.018 2.9 22 6.2 102350 40
2012-04-16 06:59:07 51°13.636 2°56.018 3.2 311 6.2 102350 40
2012-04-16 06:59:12 51°13.637 2°56.018 4 30 6.2 102350 41
2012-04-16 06:59:18 51°13.636 2°56.018 4.5 33 6.2 102350 41
2012-04-16 06:59:22 51°13.636 2°56.018 4.2 267 6.2 102350 41
2012-04-16 06:59:27 51°13.637 2°56.018 4 32 6.2 102350 41
2012-04-16 06:59:32 51°13.637 2°56.019 3.3 267 6.2 102350 40
2012-04-16 06:59:37 51°13.637 2°56.019 3 311 6.2 102350 40
2012-04-16 06:59:42 51°13.636 2°56.019 2.9 269 6.2 102350 41
2012-04-16 06:59:47 51°13.636 2°56.019 2.7 268 6.2 102350 41
2012-04-16 06:59:52 51°13.636 2°56.019 4.1 267 6.2 102350 40
2012-04-16 06:59:57 51°13.636 2°56.019 3.1 311 6.2 102350 40
2012-04-16 07:00:03 51°13.636 2°56.019 3.7 267 6.2 102350 41
2012-04-16 07:00:08 51°13.636 2°56.019 4.5 269 6.2 102350 41
2012-04-16 07:00:12 51°13.636 2°56.019 3.6 269 6.2 102350 39
2012-04-16 07:00:17 51°13.636 2°56.019 4 263 6.2 102350 39
2012-04-16 07:00:22 51°13.636 2°56.019 5.1 261 6.2 102350 40
2012-04-16 07:00:27 51°13.636 2°56.019 4.1 266 6.2 102350 40
2012-04-16 07:00:32 51°13.636 2°56.019 2.9 265 6.2 102350 39
2012-04-16 07:00:37 51°13.636 2°56.019 3.5 267 6.2 102350 39
2012-04-16 07:00:42 51°13.636 2°56.019 4.7 25 6.2 102350 41
2012-04-16 07:00:47 51°13.636 2°56.019 4.6 50 6.2 102350 41
2012-04-16 07:00:52 51°13.636 2°56.019 4.3 261 6.2 102350 41
2012-04-16 07:00:57 51°13.636 2°56.019 3.7 264 6.2 102350 41
2012-04-16 07:01:02 51°13.636 2°56.019 4.8 262 6.2 102350 42
2012-04-16 07:01:07 51°13.636 2°56.019 3.6 268 6.2 102350 42
2012-04-16 07:01:12 51°13.636 2°56.019 4.9 32 6.2 102350 40
2012-04-16 07:01:17 51°13.636 2°56.019 5.1 268 6.2 102350 40
2012-04-16 07:01:22 51°13.636 2°56.02 5.3 271 6.2 102360 41
2012-04-16 07:01:27 51°13.636 2°56.019 2.8 310 6.2 102360 41
2012-04-16 07:01:32 51°13.636 2°56.019 5 259 6.2 102360 39
2012-04-16 07:01:37 51°13.636 2°56.019 4.5 259 6.2 102360 39
2012-04-16 07:01:42 51°13.636 2°56.019 3.2 263 6.2 102350 40
2012-04-16 07:01:47 51°13.636 2°56.019 3.3 263 6.2 102350 40
2012-04-16 07:01:52 51°13.636 2°56.019 4.4 267 6.2 102350 40
2012-04-16 07:01:57 51°13.636 2°56.019 3.1 308 6.2 102350 40
2012-04-16 07:02:02 51°13.636 2°56.02 2.6 263 6.2 102360 40
2012-04-16 07:02:07 51°13.636 2°56.02 4.4 269 6.2 102360 40
2012-04-16 07:02:12 51°13.636 2°56.019 4.6 270 6.2 102350 41
2012-04-16 07:02:17 51°13.636 2°56.019 4 241 6.2 102350 41
2012-04-16 07:02:22 51°13.636 2°56.019 3.4 25 6.2 102350 41
2012-04-16 07:02:27 51°13.636 2°56.019 3.1 33 6.2 102350 41
2012-04-16 07:02:32 51°13.636 2°56.019 3.1 22 6.2 102350 41
2012-04-16 07:02:37 51°13.636 2°56.02 2.8 304 6.2 102350 41
2012-04-16 07:02:42 51°13.636 2°56.02 3.5 23 6.2 102350 40
2012-04-16 07:02:48 51°13.636 2°56.02 3 27 6.2 102350 40
2012-04-16 07:02:52 51°13.636 2°56.02 2.9 267 6.2 102350 41
2012-04-16 07:02:57 51°13.636 2°56.02 5.4 39 6.2 102350 41
2012-04-16 07:03:02 51°13.635 2°56.02 3.4 21 6.2 102350 41
2012-04-16 07:03:07 51°13.635 2°56.02 6.1 55 6.2 102350 41
2012-04-16 07:03:12 51°13.636 2°56.02 5.3 21 6.2 102350 41
2012-04-16 07:03:17 51°13.635 2°56.02 4.5 30 6.2 102350 41
2012-04-16 07:03:22 51°13.636 2°56.02 4.6 31 6.2 102350 40
2012-04-16 07:03:27 51°13.636 2°56.02 3.3 269 6.2 102350 40
2012-04-16 07:03:32 51°13.636 2°56.019 5.7 23 6.2 102350 40
2012-04-16 07:03:37 51°13.636 2°56.019 4.3 260 6.2 102350 40
2012-04-16 07:03:42 51°13.636 2°56.019 4 18 6.2 102350 40
2012-04-16 07:03:47 51°13.636 2°56.019 5.5 264 6.2 102350 40
2012-04-16 07:03:52 51°13.636 2°56.019 5.1 269 6.2 102350 40
2012-04-16 07:03:58 51°13.636 2°56.019 3.5 270 6.2 102350 40
2012-04-16 07:04:02 51°13.636 2°56.019 4.5 270 6.3 102350 39
2012-04-16 07:04:07 51°13.636 2°56.019 5.6 37 6.3 102350 39
2012-04-16 07:04:12 51°13.636 2°56.019 6.6 19 6.2 102340 39
2012-04-16 07:04:17 51°13.636 2°56.019 4.9 75 6.2 102340 39
2012-04-16 07:04:23 51°13.636 2°56.019 5.4 270 6.2 102350 40
2012-04-16 07:04:27 51°13.636 2°56.019 3 262 6.2 102350 40
2012-04-16 07:04:32 51°13.636 2°56.019 3.3 22 6.2 102360 41
2012-04-16 07:04:37 51°13.636 2°56.019 5.1 270 6.2 102360 41
2012-04-16 07:04:42 51°13.636 2°56.019 5.8 27 6.2 102350 41
2012-04-16 07:04:47 51°13.636 2°56.019 3.9 31 6.2 102350 41
2012-04-16 07:04:52 51°13.636 2°56.019 4 21 6.2 102350 40
2012-04-16 07:04:57 51°13.636 2°56.019 3.4 264 6.2 102350 40
2012-04-16 07:05:02 51°13.636 2°56.019 4.4 270 6.2 102350 41
2012-04-16 07:05:08 51°13.636 2°56.019 4.4 261 6.2 102350 41
2012-04-16 07:05:12 51°13.636 2°56.019 4.1 260 6.2 102360 40
2012-04-16 07:05:17 51°13.636 2°56.019 3.5 268 6.2 102360 40
2012-04-16 07:05:22 51°13.636 2°56.019 3.5 31 6.2 102350 41
2012-04-16 07:05:27 51°13.636 2°56.019 3.4 37 6.2 102350 41
2012-04-16 07:05:32 51°13.635 2°56.02 2.3 28 6.3 102350 42
2012-04-16 07:05:37 51°13.635 2°56.02 4.5 36 6.3 102350 42
2012-04-16 07:05:42 51°13.635 2°56.02 3.7 263 6.3 102350 40
2012-04-16 07:05:47 51°13.635 2°56.02 4.1 41 6.3 102350 40
2012-04-16 07:05:52 51°13.635 2°56.02 4.9 267 6.2 102350 41
2012-04-16 07:05:57 51°13.635 2°56.02 4 30 6.2 102350 41
2012-04-16 07:06:02 51°13.635 2°56.02 3.8 20 6.3 102350 41
2012-04-16 07:06:07 51°13.636 2°56.02 4 43 6.3 102350 41
2012-04-16 07:06:12 51°13.635 2°56.02 3.5 265 6.3 102350 40
2012-04-16 07:06:17 51°13.635 2°56.02 3.9 286 6.3 102350 40
2012-04-16 07:06:22 51°13.635 2°56.02 4.8 267 6.3 102350 40
2012-04-16 07:06:27 51°13.635 2°56.02 4.3 34 6.3 102350 40
2012-04-16 07:06:32 51°13.635 2°56.019 3.3 265 6.3 102350 40
2012-04-16 07:06:37 51°13.635 2°56.019 4.4 48 6.3 102350 40
2012-04-16 07:06:42 51°13.635 2°56.019 6.8 20 6.3 102350 41
2012-04-16 07:06:47 51°13.635 2°56.019 6.1 269 6.3 102350 41
2012-04-16 07:06:52 51°13.635 2°56.019 4.9 261 6.2 102350 40
2012-04-16 07:06:57 51°13.635 2°56.019 6.1 308 6.2 102350 40
2012-04-16 07:07:02 51°13.635 2°56.02 5.3 266 6.2 102350 40
2012-04-16 07:07:08 51°13.635 2°56.019 5.8 270 6.2 102350 40
2012-04-16 07:07:12 51°13.636 2°56.019 5.7 18 6.2 102350 40
2012-04-16 07:07:17 51°13.636 2°56.019 3.8 31 6.2 102350 40
2012-04-16 07:07:22 51°13.635 2°56.019 3.7 19 6.2 102370 41
2012-04-16 07:07:27 51°13.635 2°56.019 4.7 48 6.2 102370 41
2012-04-16 07:07:32 51°13.635 2°56.019 4.2 270 6.3 102360 40
2012-04-16 07:07:37 51°13.635 2°56.019 4.2 268 6.3 102360 40
2012-04-16 07:07:42 51°13.635 2°56.019 3.3 269 6.3 102360 40
2012-04-16 07:07:47 51°13.635 2°56.019 4.9 269 6.3 102360 40
2012-04-16 07:07:52 51°13.636 2°56.019 4.3 265 6.3 102360 40
2012-04-16 07:07:57 51°13.636 2°56.019 2.6 265 6.3 102360 40
2012-04-16 07:08:02 51°13.636 2°56.019 3.1 23 6.3 102350 41
2012-04-16 07:08:07 51°13.635 2°56.019 4.6 60 6.3 102350 41
2012-04-16 07:08:12 51°13.635 2°56.019 5.2 265 6.3 102360 41
2012-04-16 07:08:17 51°13.635 2°56.02 5 262 6.3 102360 41
2012-04-16 07:08:22 51°13.635 2°56.02 3.8 262 6.3 102360 40
2012-04-16 07:08:27 51°13.635 2°56.02 1.6 263 6.3 102360 40
2012-04-16 07:08:32 51°13.635 2°56.02 4.9 270 6.3 102360 40
2012-04-16 07:08:38 51°13.635 2°56.02 4.3 268 6.3 102360 40
2012-04-16 07:08:42 51°13.635 2°56.02 3.1 270 6.3 102350 41
2012-04-16 07:08:47 51°13.636 2°56.02 3.8 269 6.3 102350 41
2012-04-16 07:08:52 51°13.636 2°56.02 4 22 6.3 102350 40
2012-04-16 07:08:57 51°13.636 2°56.02 4.2 57 6.3 102350 40
2012-04-16 07:09:02 51°13.636 2°56.02 3.7 263 6.3 102350 41
2012-04-16 07:09:08 51°13.636 2°56.02 2.3 39 6.3 102350 41
2012-04-16 07:09:12 51°13.636 2°56.02 2.4 15 6.3 102350 41
2012-04-16 07:09:17 51°13.635 2°56.02 2.9 261 6.3 102350 41
2012-04-16 07:09:22 51°13.635 2°56.019 2.6 23 6.3 102360 40
2012-04-16 07:09:28 51°13.636 2°56.02 4.1 265 6.3 102360 40
2012-04-16 07:09:32 51°13.635 2°56.019 4.9 264 6.3 102350 39
2012-04-16 07:09:37 51°13.636 2°56.019 5 27 6.3 102350 39
2012-04-16 07:09:42 51°13.636 2°56.019 4.2 16 6.3 102350 40
2012-04-16 07:09:47 51°13.636 2°56.019 5.6 270 6.3 102350 40
2012-04-16 07:09:52 51°13.635 2°56.019 3.5 22 6.3 102360 41
2012-04-16 07:09:57 51°13.635 2°56.019 2.7 30 6.3 102360 41
2012-04-16 07:10:02 51°13.635 2°56.019 2.3 20 6.3 102360 40
2012-04-16 07:10:07 51°13.635 2°56.019 3 50 6.3 102360 40
2012-04-16 07:10:12 51°13.635 2°56.019 3.6 23 6.4 102360 39
2012-04-16 07:10:17 51°13.635 2°56.019 4.1 267 6.4 102360 39
2012-04-16 07:10:22 51°13.635 2°56.019 2.7 266 6.3 102350 39
2012-04-16 07:10:27 51°13.635 2°56.02 2.3 55 6.3 102350 39
2012-04-16 07:10:32 51°13.635 2°56.02 5.5 264 6.4 102350 40
2012-04-16 07:10:37 51°13.635 2°56.02 4 32 6.4 102350 40
2012-04-16 07:10:42 51°13.635 2°56.02 3.5 260 6.3 102360 39
2012-04-16 07:10:47 51°13.635 2°56.019 3.7 263 6.3 102360 39
2012-04-16 07:10:52 51°13.634 2°56.019 4.7 255 6.3 102360 39
2012-04-16 07:10:57 51°13.634 2°56.019 3.3 50 6.3 102360 39
2012-04-16 07:11:03 51°13.634 2°56.019 5.6 260 6.3 102360 40
2012-04-16 07:11:07 51°13.634 2°56.019 6 252 6.3 102360 40
2012-04-16 07:11:12 51°13.634 2°56.019 6.2 259 6.3 102360 39
2012-04-16 07:11:17 51°13.634 2°56.018 5.3 259 6.3 102360 39
2012-04-16 07:11:22 51°13.634 2°56.016 5.3 263 6.4 102360 39
2012-04-16 07:11:27 51°13.635 2°56.014 6.2 268 6.4 102360 39
2012-04-16 07:11:32 51°13.635 2°56.01 5.1 270 6.4 102370 40
2012-04-16 07:11:37 51°13.636 2°56.004 4.3 268 6.4 102370 40
2012-04-16 07:11:42 51°13.638 2°55.998 4.1 263 6.4 102360 39
2012-04-16 07:11:48 51°13.639 2°55.99 4.1 36 6.4 102360 39
2012-04-16 07:11:52 51°13.64 2°55.984 4.6 18 6.4 102370 38
2012-04-16 07:11:57 51°13.642 2°55.976 4.7 269 6.4 102370 38
2012-04-16 07:12:02 51°13.643 2°55.968 6 27 6.4 102360 38
2012-04-16 07:12:07 51°13.645 2°55.961 6 307 6.4 102360 38
2012-04-16 07:12:12 51°13.646 2°55.953 3.8 266 6.4 102360 37
2012-04-16 07:12:17 51°13.647 2°55.944 6 270 6.4 102360 37
2012-04-16 07:12:22 51°13.649 2°55.937 5.1 26 6.4 102370 39
2012-04-16 07:12:27 51°13.651 2°55.929 8.2 38 6.4 102370 39
2012-04-16 07:12:32 51°13.653 2°55.92 8 17 6.4 102370 39
2012-04-16 07:12:37 51°13.654 2°55.912 8.4 10 6.4 102370 39
2012-04-16 07:12:42 51°13.657 2°55.904 6.1 30 6.4 102380 39
2012-04-16 07:12:47 51°13.66 2°55.895 4.6 39 6.4 102380 39
2012-04-16 07:12:52 51°13.663 2°55.887 5 26 6.4 102370 40
2012-04-16 07:12:57 51°13.666 2°55.878 5.5 50 6.4 102370 40
2012-04-16 07:13:02 51°13.669 2°55.87 9.8 23 6.4 102370 39
2012-04-16 07:13:07 51°13.672 2°55.861 8.4 32 6.4 102370 39
2012-04-16 07:13:12 51°13.676 2°55.853 7.9 26 6.4 102360 40
2012-04-16 07:13:17 51°13.679 2°55.844 8.1 54 6.4 102360 40
2012-04-16 07:13:23 51°13.684 2°55.833 10.2 22 6.4 102370 39
2012-04-16 07:13:27 51°13.688 2°55.826 9.2 34 6.4 102370 39
2012-04-16 07:13:32 51°13.692 2°55.817 8.9 20 6.3 102370 39
2012-04-16 07:13:37 51°13.696 2°55.808 7.9 36 6.3 102370 39
2012-04-16 07:13:42 51°13.7 2°55.8 7.7 25 6.3 102360 38
2012-04-16 07:13:47 51°13.704 2°55.791 8.5 36 6.3 102360 38
2012-04-16 07:13:52 51°13.708 2°55.783 7.7 27 6.3 102380 39
2012-04-16 07:13:57 51°13.712 2°55.775 6.9 270 6.3 102380 39
2012-04-16 07:14:02 51°13.716 2°55.767 7.1 21 6.3 102370 39
2012-04-16 07:14:07 51°13.72 2°55.759 7.6 49 6.3 102370 39
2012-04-16 07:14:12 51°13.725 2°55.751 7.4 26 6.3 102370 40
2012-04-16 07:14:17 51°13.728 2°55.742 7.3 36 6.3 102370 40
2012-04-16 07:14:22 51°13.733 2°55.734 7.3 25 6.3 102370 40
2012-04-16 07:14:27 51°13.738 2°55.726 4.7 30 6.3 102370 40
2012-04-16 07:14:32 51°13.743 2°55.718 4.4 24 6.3 102370 39
2012-04-16 07:14:37 51°13.747 2°55.71 5.2 36 6.3 102370 39
2012-04-16 07:14:42 51°13.752 2°55.702 4.9 27 6.3 102370 40
2012-04-16 07:14:47 51°13.757 2°55.694 5.3 54 6.3 102370 40
2012-04-16 07:14:52 51°13.763 2°55.687 5.1 20 6.3 102370 39
2012-04-16 07:14:57 51°13.768 2°55.679 6.9 31 6.3 102370 39
2012-04-16 07:15:02 51°13.773 2°55.672 7.4 23 6.3 102370 40
2012-04-16 07:15:07 51°13.779 2°55.665 7.1 39 6.3 102370 40
2012-04-16 07:15:12 51°13.785 2°55.658 6.8 28 6.3 102370 41
2012-04-16 07:15:17 51°13.791 2°55.652 9.1 51 6.3 102370 41
2012-04-16 07:15:22 51°13.796 2°55.646 9.7 19 6.3 102380 40
2012-04-16 07:15:27 51°13.802 2°55.639 9.2 33 6.3 102380 40
2012-04-16 07:15:32 51°13.809 2°55.634 10 21 6.3 102370 40
2012-04-16 07:15:37 51°13.815 2°55.629 9.4 32 6.3 102370 40
2012-04-16 07:15:43 51°13.823 2°55.623 9.1 19 6.3 102370 40
2012-04-16 07:15:47 51°13.828 2°55.62 10.7 32 6.3 102370 40
2012-04-16 07:15:52 51°13.835 2°55.615 6.6 25 6.3 102370 39
2012-04-16 07:15:57 51°13.841 2°55.611 8.8 56 6.3 102370 39
2012-04-16 07:16:02 51°13.847 2°55.608 8.9 19 6.2 102370 38
2012-04-16 07:16:08 51°13.855 2°55.604 5.2 38 6.2 102370 38
2012-04-16 07:16:12 51°13.86 2°55.601 5.4 23 6.2 102370 39
2012-04-16 07:16:17 51°13.866 2°55.599 7.3 33 6.2 102370 39
2012-04-16 07:16:22 51°13.872 2°55.597 8.9 19 6.2 102370 39
2012-04-16 07:16:27 51°13.878 2°55.595 9.3 57 6.2 102370 39
2012-04-16 07:16:32 51°13.884 2°55.594 7.2 22 6.3 102380 40
2012-04-16 07:16:37 51°13.89 2°55.594 5.4 31 6.3 102380 40
2012-04-16 07:16:42 51°13.896 2°55.594 5.5 21 6.3 102370 40
2012-04-16 07:16:47 51°13.901 2°55.594 5.7 50 6.3 102370 40
2012-04-16 07:16:52 51°13.906 2°55.595 5.1 22 6.3 102370 39
2012-04-16 07:16:57 51°13.911 2°55.597 7.1 37 6.3 102370 39
2012-04-16 07:17:02 51°13.916 2°55.599 7.3 23 6.3 102380 39
2012-04-16 07:17:07 51°13.921 2°55.601 7.6 31 6.3 102380 39
2012-04-16 07:17:12 51°13.925 2°55.603 8.6 26 6.4 102380 39
2012-04-16 07:17:18 51°13.93 2°55.607 6.5 37 6.4 102380 39
2012-04-16 07:17:22 51°13.934 2°55.61 7.5 45 6.4 102370 40
2012-04-16 07:17:27 51°13.937 2°55.614 7.2 33 6.4 102370 40
2012-04-16 07:17:32 51°13.941 2°55.619 6.9 40 6.4 102360 38
2012-04-16 07:17:37 51°13.944 2°55.623 6.4 41 6.4 102360 38
2012-04-16 07:17:43 51°13.948 2°55.628 7.4 38 6.4 102360 40
2012-04-16 07:17:47 51°13.95 2°55.631 8.1 39 6.4 102360 40
2012-04-16 07:17:52 51°13.952 2°55.633 8.1 35 6.4 102360 39
2012-04-16 07:17:57 51°13.952 2°55.634 7.4 33 6.4 102360 39
2012-04-16 07:18:02 51°13.952 2°55.633 7.7 29 6.4 102360 40
2012-04-16 07:18:07 51°13.951 2°55.631 5.9 20 6.4 102360 40
2012-04-16 07:18:12 51°13.951 2°55.626 6.3 33 6.4 102350 40
2012-04-16 07:18:17 51°13.951 2°55.622 6 19 6.4 102350 40
2012-04-16 07:18:22 51°13.951 2°55.616 5.6 20 6.4 102360 40
2012-04-16 07:18:28 51°13.952 2°55.608 7.2 8 6.4 102360 40
2012-04-16 07:18:32 51°13.953 2°55.602 6.3 11 6.3 102360 40
2012-04-16 07:18:37 51°13.955 2°55.595 7.9 356 6.3 102360 40
2012-04-16 07:18:42 51°13.958 2°55.588 7.9 357 6.3 102360 40
2012-04-16 07:18:47 51°13.961 2°55.581 8.5 357 6.3 102360 40
2012-04-16 07:18:52 51°13.966 2°55.575 7.5 353 6.3 102360 40
2012-04-16 07:18:57 51°13.971 2°55.567 9.7 348 6.3 102360 40
2012-04-16 07:19:02 51°13.977 2°55.561 8.6 346 6.3 102360 40
2012-04-16 07:19:07 51°13.983 2°55.553 8.2 347 6.3 102360 40
2012-04-16 07:19:12 51°13.99 2°55.545 7.3 344 6.3 102360 39